Change the Weather History Date:

Tuesday, May 21, 2013

  Actual Average Record
Temperature  
Mean Temperature 78 °F -  
Max Temperature 86 °F 86 °F - ()
Min Temperature 71 °F 67 °F - ()
Cooling Degree Days 14    
Growing Degree Days 28 (Base 50)    
Moisture  
Dew Point 72 °F    
Average Humidity 83    
Maximum Humidity 100    
Minimum Humidity 66    
Precipitation  
Precipitation 0.00 in 0.33 in - ()
Sea Level Pressure  
Sea Level Pressure 29.94 in    
Wind  
Wind Speed 2 mph ()    
Max Wind Speed 7 mph    
Max Gust Speed -    
Visibility 4.3 miles    
Events Thunderstorm    
T = Trace of Precipitation, MM = Missing Value Source: Averaged Metar Reports

Daily Weather History Graph

Daily Weather History Graph

Search for Another Location

Airport or City:

Trip Planner

Search our weather history database for the weather conditions in past years. The results will help you decide how hot, cold, wet, or windy it might be!

Date:

Astronomy

May. 21, 2013 Rise Set
Actual Time 5:28 AM CST 6:17 PM CST
Civil Twilight 5:05 AM CST 6:40 PM CST
Nautical Twilight 4:38 AM CST 7:07 PM CST
Astronomical Twilight 4:11 AM CST 7:34 PM CST
Moon 3:01 PM CST (5/21) 2:19 AM CST (5/21)
Length of Visible Light 13h 34m
Length of Day
12h 48m
Waxing Gibbous, 84% of the Moon is Illuminated
May 21
Waxing Gibbous
May 24
Full
May 31
Last Quarter
Jun 8
New
Jun 16
First Quarter

Hourly Weather History & Observations

Time (CST) Temp. Heat Index Dew Point Humidity Pressure Visibility Wind Dir Wind Speed Gust Speed Precip Events Conditions
5:50 AM 71.6 °F - 71.6 °F 100% 29.95 in 1.9 mi Calm Calm - N/A   Mist
6:50 AM 71.6 °F - 71.6 °F 100% 29.98 in 1.9 mi Calm Calm - N/A   Mist
7:50 AM 75.2 °F - 73.4 °F 94% 29.98 in 2.5 mi Calm Calm - N/A   Haze
8:50 AM 80.6 °F 85.4 °F 73.4 °F 79% 29.98 in 2.5 mi Calm Calm - N/A   Haze
9:50 AM 82.4 °F 89.5 °F 75.2 °F 79% 29.98 in 3.1 mi ESE 2.3 mph - N/A   Haze
10:50 AM 86.0 °F 93.4 °F 73.4 °F 66% 29.95 in 2.5 mi SSE 4.6 mph - N/A   Haze
11:50 AM 82.4 °F 88.2 °F 73.4 °F 74% 29.95 in 3.1 mi South 3.5 mph - N/A   Haze
12:50 PM 84.2 °F 90.9 °F 73.4 °F 70% 29.92 in 3.1 mi South 3.5 mph - N/A Thunderstorm Thunderstorm
1:50 PM 78.8 °F - 73.4 °F 83% 29.92 in 6.2 mi SSW 6.9 mph - N/A   Scattered Clouds
2:50 PM 78.8 °F - 69.8 °F 74% 29.92 in 6.2 mi South 5.8 mph - N/A   Partly Cloudy
3:50 PM 80.6 °F 83.9 °F 69.8 °F 70% 29.89 in 6.2 mi SSE 4.6 mph - N/A   Partly Cloudy
4:50 PM 80.6 °F 83.9 °F 69.8 °F 70% 29.89 in 6.2 mi SSE 4.6 mph - N/A   Partly Cloudy
5:50 PM 78.8 °F - 71.6 °F 78% 29.92 in 6.2 mi SSE 4.6 mph - N/A   Partly Cloudy
6:50 PM 77.0 °F - 73.4 °F 89% 29.92 in 5.0 mi SSW 4.6 mph - N/A   Partly Cloudy
7:50 PM 75.2 °F - 73.4 °F 94% 29.95 in 4.3 mi SSE 3.5 mph - N/A   Partly Cloudy
8:50 PM 75.2 °F - 73.4 °F 94% 29.95 in 5.0 mi SSE 2.3 mph - N/A   Partly Cloudy
9:50 PM 75.2 °F - 71.6 °F 89% 29.95 in 5.0 mi NNW 3.5 mph - N/A   Partly Cloudy
10:50 PM 75.2 °F - 71.6 °F 89% 29.95 in 5.0 mi South 3.5 mph - N/A   Partly Cloudy
11:50 PM 73.4 °F - 71.6 °F 94% 29.95 in 5.0 mi South 2.3 mph - N/A   Partly Cloudy